| time (UTC) | temp C | wind direction | speed KPH | gust KPH | rain 1hr cm | rain 24hr cm | rain mn cm | humidity % | barometer mb |
| 20260509222507 | 21 | 215 | 1.6 | 9.7 | 0.00 | 0.46 | 0.38 | 51 | 1006.7 |
| 20260509222008 | 21 | 239 | 0.0 | 4.8 | 0.00 | 0.46 | 0.38 | 52 | 1006.8 |
| 20260509221523 | 21 | 319 | 0.0 | 4.8 | 0.00 | 0.46 | 0.38 | 52 | 1006.8 |
| 20260509221008 | 20 | 273 | 0.0 | 4.8 | 0.00 | 0.46 | 0.38 | 54 | 1006.9 |
| 20260509220508 | 20 | 321 | 0.0 | 6.4 | 0.00 | 0.46 | 0.38 | 55 | 1007.0 |
| 20260509220026 | 20 | 302 | 0.0 | 12.9 | 0.00 | 0.46 | 0.38 | 55 | 1007.1 |
| 20260509215507 | 19 | 303 | 3.2 | 12.9 | 0.00 | 0.46 | 0.38 | 55 | 1007.1 |
| 20260509215003 | 20 | 326 | 0.0 | 8.0 | 0.00 | 0.46 | 0.38 | 55 | 1007.0 |
| 20260509214517 | 20 | 211 | 0.0 | 8.0 | 0.00 | 0.46 | 0.38 | 55 | 1007.0 |
| 20260509214004 | 20 | 216 | 1.6 | 8.0 | 0.00 | 0.46 | 0.38 | 55 | 1007.0 |
| 20260509213508 | 20 | 192 | 0.0 | 6.4 | 0.00 | 0.46 | 0.38 | 53 | 1007.2 |
| 20260509213016 | 21 | 207 | 0.0 | 9.7 | 0.00 | 0.46 | 0.38 | 52 | 1007.2 |
| 20260509212507 | 21 | 218 | 0.0 | 9.7 | 0.00 | 0.46 | 0.38 | 52 | 1007.2 |
| 20260509212010 | 21 | 223 | 0.0 | 6.4 | 0.00 | 0.46 | 0.38 | 53 | 1007.1 |
| 20260509211521 | 20 | 319 | 0.0 | 6.4 | 0.00 | 0.46 | 0.38 | 52 | 1007.1 |
| 20260509211009 | 20 | 183 | 1.6 | 14.5 | 0.00 | 0.46 | 0.38 | 52 | 1007.2 |
| 20260509210507 | 20 | 298 | 0.0 | 14.5 | 0.00 | 0.46 | 0.38 | 54 | 1007.3 |
| 20260509210034 | 20 | 223 | 1.6 | 9.7 | 0.00 | 0.46 | 0.38 | 53 | 1007.4 |
| 20260509205508 | 20 | 183 | 1.6 | 9.7 | 0.00 | 0.46 | 0.38 | 54 | 1007.4 |
| 20260509205008 | 20 | 198 | 1.6 | 17.7 | 0.00 | 0.46 | 0.38 | 54 | 1007.6 |
| 20260509204534 | 20 | 200 | 0.0 | 17.7 | 0.00 | 0.46 | 0.38 | 55 | 1007.6 |
| 20260509204003 | 19 | 304 | 1.6 | 8.0 | 0.00 | 0.46 | 0.38 | 56 | 1007.6 |
| 20260509203508 | 19 | 202 | 0.0 | 22.5 | 0.00 | 0.46 | 0.38 | 59 | 1007.6 |
| 20260509203017 | 19 | 308 | 0.0 | 22.5 | 0.00 | 0.46 | 0.38 | 57 | 1007.7 |
| 20260509202507 | 19 | 192 | 3.2 | 22.5 | 0.00 | 0.46 | 0.38 | 58 | 1007.7 |
| 20260509202011 | 19 | 262 | 0.0 | 6.4 | 0.00 | 0.46 | 0.38 | 60 | 1007.7 |
| 20260509201519 | 19 | 333 | 1.6 | 6.4 | 0.00 | 0.46 | 0.38 | 59 | 1007.7 |
| 20260509201007 | 19 | 213 | 0.0 | 6.4 | 0.00 | 0.46 | 0.38 | 59 | 1007.9 |
| 20260509200511 | 19 | 186 | 1.6 | 6.4 | 0.00 | 0.46 | 0.38 | 60 | 1007.9 |
| 20260509200004 | 19 | 200 | 0.0 | 4.8 | 0.00 | 0.46 | 0.38 | 60 | 1007.9 |
| 20260509195506 | 19 | 211 | 0.0 | 6.4 | 0.00 | 0.46 | 0.38 | 59 | 1007.9 |
| 20260509195003 | 19 | 22 | 0.0 | 6.4 | 0.00 | 0.46 | 0.38 | 61 | 1007.9 |
| 20260509194514 | 19 | 325 | 0.0 | 11.3 | 0.00 | 0.46 | 0.38 | 60 | 1008.1 |
| 20260509194004 | 19 | 217 | 0.0 | 11.3 | 0.00 | 0.46 | 0.38 | 63 | 1008.1 |
| 20260509193507 | 18 | 215 | 0.0 | 12.9 | 0.00 | 0.46 | 0.38 | 63 | 1008.1 |
| 20260509193016 | 18 | 193 | 0.0 | 12.9 | 0.00 | 0.46 | 0.38 | 62 | 1008.2 |
| 20260509192507 | 18 | 342 | 1.6 | 14.5 | 0.00 | 0.46 | 0.38 | 63 | 1008.2 |
| 20260509192008 | 18 | 215 | 1.6 | 14.5 | 0.00 | 0.46 | 0.38 | 62 | 1008.3 |
| 20260509191526 | 18 | 225 | 1.6 | 9.7 | 0.00 | 0.46 | 0.38 | 64 | 1008.3 |
| 20260509191011 | 18 | 201 | 0.0 | 14.5 | 0.00 | 0.46 | 0.38 | 64 | 1008.6 |
| 20260509190508 | 18 | 310 | 0.0 | 14.5 | 0.00 | 0.46 | 0.38 | 63 | 1008.6 |
| 20260509190022 | 18 | 296 | 1.6 | 11.3 | 0.00 | 0.46 | 0.38 | 62 | 1008.7 |
| 20260509185507 | 18 | 188 | 0.0 | 4.8 | 0.00 | 0.46 | 0.38 | 63 | 1008.6 |
| 20260509185007 | 18 | 200 | 0.0 | 8.0 | 0.00 | 0.46 | 0.38 | 63 | 1008.7 |
| 20260509184512 | 18 | 198 | 0.0 | 8.0 | 0.00 | 0.46 | 0.38 | 65 | 1008.6 |
| 20260509184004 | 18 | 230 | 0.0 | 4.8 | 0.00 | 0.46 | 0.38 | 67 | 1008.6 |
| 20260509183505 | 18 | 233 | 0.0 | 11.3 | 0.00 | 0.46 | 0.38 | 69 | 1008.8 |
| 20260509183015 | 17 | 265 | 0.0 | 11.3 | 0.00 | 0.46 | 0.38 | 70 | 1009.0 |
| 20260509182507 | 17 | 281 | 1.6 | 11.3 | 0.00 | 0.46 | 0.38 | 71 | 1009.0 |
| 20260509182012 | 16 | 223 | 0.0 | 8.0 | 0.00 | 0.46 | 0.38 | 73 | 1009.0 |
| 20260509181520 | 16 | 213 | 0.0 | 8.0 | 0.00 | 0.46 | 0.38 | 74 | 1009.1 |
| 20260509181011 | 16 | 195 | 0.0 | 4.8 | 0.00 | 0.46 | 0.38 | 75 | 1009.1 |
| 20260509180510 | 16 | 279 | 0.0 | 4.8 | 0.00 | 0.46 | 0.38 | 75 | 1009.1 |
| 20260509180024 | 16 | 243 | 0.0 | 0.0 | 0.00 | 0.46 | 0.38 | 75 | 1009.1 |
| 20260509175508 | 16 | 212 | 0.0 | 4.8 | 0.00 | 0.46 | 0.38 | 74 | 1009.1 |
| 20260509175011 | 16 | 213 | 0.0 | 4.8 | 0.00 | 0.46 | 0.38 | 73 | 1009.1 |
| 20260509174528 | 16 | 350 | 0.0 | 4.8 | 0.00 | 0.46 | 0.38 | 1009.1 | |
| 20260509174004 | 16 | 261 | 0.0 | 4.8 | 0.00 | 0.46 | 0.38 | 1009.1 | |
| 20260509173503 | 16 | 226 | 0.0 | 8.0 | 0.00 | 0.46 | 0.38 | 73 | 1009.0 |
| 20260509173012 | 16 | 221 | 0.0 | 8.0 | 0.00 | 0.46 | 0.38 | 73 | 1009.0 |
| 20260509172505 | 16 | 202 | 0.0 | 6.4 | 0.00 | 0.46 | 0.38 | 74 | 1009.0 |
| 20260509172006 | 16 | 39 | 0.0 | 4.8 | 0.00 | 0.46 | 0.38 | 74 | 1008.9 |
| 20260509171518 | 16 | 302 | 0.0 | 4.8 | 0.00 | 0.46 | 0.38 | 73 | 1008.9 |
| 20260509171004 | 16 | 273 | 0.0 | 6.4 | 0.00 | 0.46 | 0.38 | 74 | 1008.9 |
| 20260509170509 | 16 | 281 | 0.0 | 6.4 | 0.00 | 0.46 | 0.38 | 76 | 1008.9 |
| 20260509170024 | 16 | 344 | 0.0 | 11.3 | 0.00 | 0.46 | 0.38 | 76 | 1008.8 |
| 20260509165509 | 16 | 340 | 0.0 | 11.3 | 0.00 | 0.46 | 0.38 | 76 | 1008.8 |
| 20260509165009 | 15 | 245 | 0.0 | 8.0 | 0.00 | 0.46 | 0.38 | 76 | 1008.8 |
| 20260509164526 | 15 | 199 | 0.0 | 6.4 | 0.00 | 0.46 | 0.38 | 79 | 1008.7 |
| 20260509164011 | 15 | 177 | 0.0 | 6.4 | 0.00 | 0.46 | 0.38 | 81 | 1008.6 |
| 20260509163511 | 15 | 163 | 0.0 | 4.8 | 0.00 | 0.46 | 0.38 | 81 | 1008.7 |
| 20260509163013 | 15 | 211 | 0.0 | 3.2 | 0.00 | 0.46 | 0.38 | 82 | 1008.8 |
| 20260509162507 | 15 | 222 | 0.0 | 3.2 | 0.03 | 0.46 | 0.38 | 82 | 1008.9 |
| 20260509162004 | 15 | 200 | 0.0 | 4.8 | 0.03 | 0.46 | 0.38 | 85 | 1008.9 |
| 20260509161516 | 14 | 147 | 0.0 | 6.4 | 0.03 | 0.46 | 0.38 | 86 | 1009.0 |
| 20260509161011 | 13 | 230 | 0.0 | 4.8 | 0.03 | 0.46 | 0.38 | 87 | 1009.0 |
| 20260509160509 | 13 | 233 | 0.0 | 0.0 | 0.03 | 0.46 | 0.38 | 87 | 1009.0 |
| 20260509160026 | 13 | 162 | 0.0 | 3.2 | 0.03 | 0.46 | 0.38 | 87 | 1009.0 |
| 20260509155509 | 13 | 228 | 0.0 | 3.2 | 0.03 | 0.46 | 0.38 | 89 | 1009.0 |
| 20260509155010 | 12 | 309 | 0.0 | 4.8 | 0.03 | 0.46 | 0.38 | 89 | 1009.0 |
| 20260509154525 | 12 | 97 | 0.0 | 4.8 | 0.03 | 0.46 | 0.38 | 88 | 1009.0 |
| 20260509154011 | 12 | 263 | 0.0 | 6.4 | 0.03 | 0.46 | 0.38 | 88 | 1009.1 |
| 20260509153509 | 12 | 214 | 0.0 | 6.4 | 0.03 | 0.46 | 0.38 | 88 | 1009.1 |
| 20260509153039 | 12 | 198 | 0.0 | 6.4 | 0.03 | 0.46 | 0.38 | 89 | 1009.0 |
| 20260509152508 | 12 | 217 | 0.0 | 6.4 | 0.00 | 0.43 | 0.36 | 89 | 1008.9 |
| 20260509152012 | 12 | 175 | 0.0 | 3.2 | 0.00 | 0.43 | 0.36 | 89 | 1008.8 |
| 20260509151514 | 12 | 179 | 0.0 | 0.0 | 0.00 | 0.43 | 0.36 | 89 | 1008.9 |
| 20260509151006 | 12 | 199 | 0.0 | 3.2 | 0.00 | 0.43 | 0.36 | 89 | 1008.9 |
| 20260509150507 | 12 | 229 | 0.0 | 3.2 | 0.00 | 0.43 | 0.36 | 89 | 1009.1 |
| 20260509150029 | 12 | 234 | 0.0 | 1.6 | 0.00 | 0.43 | 0.36 | 89 | 1009.1 |
| 20260509145505 | 12 | 257 | 0.0 | 0.0 | 0.00 | 0.43 | 0.36 | 90 | 1009.1 |
| 20260509145015 | 12 | 198 | 0.0 | 0.0 | 0.00 | 0.43 | 0.36 | 90 | 1009.1 |
| 20260509144529 | 12 | 284 | 0.0 | 4.8 | 0.00 | 0.43 | 0.36 | 90 | 1009.0 |
| 20260509144016 | 12 | 54 | 0.0 | 4.8 | 0.00 | 0.43 | 0.36 | 90 | 1009.0 |
| 20260509143510 | 12 | 282 | 0.0 | 3.2 | 0.00 | 0.43 | 0.36 | 90 | 1008.9 |
| 20260509143026 | 12 | 213 | 0.0 | 3.2 | 0.03 | 0.43 | 0.36 | 90 | 1008.9 |
| 20260509142509 | 12 | 244 | 0.0 | 3.2 | 0.03 | 0.43 | 0.36 | 91 | 1008.9 |
| 20260509142015 | 11 | 211 | 0.0 | 3.2 | 0.05 | 0.43 | 0.36 | 91 | 1009.0 |
| 20260509141530 | 11 | 258 | 0.0 | 0.0 | 0.05 | 0.43 | 0.36 | 91 | 1009.0 |
| 20260509141008 | 11 | 223 | 0.0 | 0.0 | 0.05 | 0.43 | 0.36 | 91 | 1009.1 |
| 20260509140508 | 11 | 215 | 0.0 | 0.0 | 0.05 | 0.43 | 0.36 | 91 | 1009.0 |
| 20260509140017 | 11 | 182 | 0.0 | 0.0 | 0.05 | 0.43 | 0.36 | 91 | 1009.1 |
| 20260509135504 | 11 | 219 | 0.0 | 0.0 | 0.08 | 0.43 | 0.36 | 91 | 1009.0 |
| 20260509135011 | 11 | 309 | 0.0 | 0.0 | 0.08 | 0.43 | 0.36 | 91 | 1009.0 |
| 20260509134538 | 11 | 302 | 0.0 | 0.0 | 0.10 | 0.43 | 0.36 | 91 | 1009.2 |
| 20260509134006 | 11 | 291 | 0.0 | 0.0 | 0.10 | 0.43 | 0.36 | 91 | 1009.1 |
| 20260509133512 | 11 | 213 | 0.0 | 0.0 | 0.10 | 0.43 | 0.36 | 91 | 1009.3 |
| 20260509133026 | 11 | 298 | 0.0 | 3.2 | 0.08 | 0.41 | 0.33 | 91 | 1009.2 |
| 20260509132511 | 11 | 171 | 0.0 | 3.2 | 0.10 | 0.41 | 0.33 | 91 | 1009.2 |
| 20260509132013 | 11 | 211 | 0.0 | 3.2 | 0.08 | 0.38 | 0.30 | 91 | 1009.2 |
| 20260509131528 | 11 | 196 | 0.0 | 0.0 | 0.10 | 0.38 | 0.30 | 91 | 1009.1 |
| 20260509131010 | 11 | 157 | 0.0 | 1.6 | 0.10 | 0.38 | 0.30 | 91 | 1009.3 |
| 20260509130513 | 11 | 191 | 0.0 | 3.2 | 0.13 | 0.38 | 0.30 | 91 | 1009.2 |
| 20260509130016 | 11 | 26 | 0.0 | 3.2 | 0.13 | 0.38 | 0.30 | 91 | 1009.2 |
| 20260509125507 | 11 | 200 | 0.0 | 0.0 | 0.10 | 0.36 | 0.28 | 91 | 1009.3 |
| 20260509125007 | 11 | 186 | 0.0 | 6.4 | 0.13 | 0.36 | 0.28 | 91 | 1009.3 |
| 20260509124520 | 11 | 140 | 0.0 | 6.4 | 0.10 | 0.33 | 0.25 | 91 | 1009.4 |
| 20260509124010 | 11 | 165 | 0.0 | 0.0 | 0.13 | 0.33 | 0.25 | 91 | 1009.4 |
| 20260509123509 | 11 | 206 | 0.0 | 0.0 | 0.15 | 0.33 | 0.25 | 91 | 1009.5 |
| 20260509123026 | 11 | 270 | 0.0 | 3.2 | 0.15 | 0.33 | 0.25 | 90 | 1009.4 |
| 20260509122512 | 11 | 317 | 0.0 | 3.2 | 0.15 | 0.30 | 0.23 | 90 | 1009.4 |
| 20260509122016 | 11 | 252 | 0.0 | 0.0 | 0.15 | 0.30 | 0.23 | 90 | 1009.6 |
| 20260509121541 | 11 | 88 | 0.0 | 0.0 | 0.15 | 0.28 | 0.20 | 90 | 1009.5 |
| 20260509121009 | 11 | 175 | 0.0 | 0.0 | 0.15 | 0.28 | 0.20 | 90 | 1009.7 |
| 20260509120508 | 11 | 201 | 0.0 | 0.0 | 0.13 | 0.25 | 0.18 | 90 | 1009.5 |
| 20260509120026 | 11 | 51 | 0.0 | 0.0 | 0.13 | 0.25 | 0.18 | 90 | 1009.4 |
| 20260509115508 | 11 | 87 | 0.0 | 0.0 | 0.13 | 0.25 | 0.18 | 90 | 1009.4 |
| 20260509115010 | 11 | 182 | 0.0 | 0.0 | 0.10 | 0.23 | 0.15 | 90 | 1009.4 |
| 20260509114530 | 11 | 186 | 0.0 | 0.0 | 0.10 | 0.23 | 0.15 | 89 | 1009.3 |
| 20260509114009 | 11 | 182 | 0.0 | 0.0 | 0.08 | 0.20 | 0.13 | 89 | 1009.2 |
| 20260509113510 | 11 | 146 | 0.0 | 0.0 | 0.05 | 0.18 | 0.10 | 89 | 1009.2 |
| 20260509113032 | 11 | 178 | 0.0 | 0.0 | 0.05 | 0.18 | 0.10 | 89 | 1009.2 |
| 20260509112507 | 11 | 190 | 0.0 | 0.0 | 0.03 | 0.15 | 0.08 | 89 | 1009.2 |
| 20260509112014 | 11 | 145 | 0.0 | 0.0 | 0.03 | 0.15 | 0.08 | 89 | 1009.2 |
| 20260509111528 | 11 | 185 | 0.0 | 0.0 | 0.00 | 0.13 | 0.05 | 89 | 1009.1 |
| 20260509111012 | 11 | 198 | 0.0 | 0.0 | 0.00 | 0.13 | 0.05 | 89 | 1009.1 |
| 20260509110504 | 11 | 108 | 0.0 | 0.0 | 0.00 | 0.13 | 0.05 | 89 | 1009.1 |
| 20260509110006 | 11 | 197 | 0.0 | 0.0 | 0.00 | 0.13 | 0.05 | 89 | 1009.1 |
| 20260509105509 | 11 | 234 | 0.0 | 0.0 | 0.00 | 0.13 | 0.05 | 90 | 1009.0 |
| 20260509105005 | 10 | 159 | 0.0 | 0.0 | 0.00 | 0.13 | 0.05 | 90 | 1009.0 |
| 20260509104504 | 10 | 211 | 0.0 | 0.0 | 0.00 | 0.13 | 0.05 | 90 | 1009.0 |
| 20260509104004 | 10 | 192 | 0.0 | 0.0 | 0.03 | 0.13 | 0.05 | 90 | 1008.9 |
| 20260509103504 | 10 | 48 | 0.0 | 0.0 | 0.03 | 0.13 | 0.05 | 91 | 1009.0 |
| 20260509103007 | 10 | 36 | 0.0 | 0.0 | 0.03 | 0.13 | 0.05 | 91 | 1009.0 |
| 20260509102504 | 10 | 74 | 0.0 | 0.0 | 0.03 | 0.13 | 0.05 | 91 | 1009.0 |
| 20260509102005 | 10 | 61 | 0.0 | 0.0 | 0.03 | 0.13 | 0.05 | 91 | 1009.0 |
| 20260509101505 | 10 | 61 | 0.0 | 0.0 | 0.03 | 0.13 | 0.05 | 92 | 1009.0 |
| 20260509101003 | 10 | 352 | 0.0 | 0.0 | 0.03 | 0.13 | 0.05 | 92 | 1009.1 |
| 20260509100504 | 10 | 22 | 0.0 | 0.0 | 0.03 | 0.13 | 0.05 | 92 | 1009.0 |
| 20260509100007 | 10 | 167 | 0.0 | 0.0 | 0.03 | 0.13 | 0.05 | 92 | 1009.0 |
| 20260509095504 | 10 | 275 | 0.0 | 0.0 | 0.03 | 0.13 | 0.05 | 92 | 1009.1 |
| 20260509095004 | 10 | 44 | 0.0 | 0.0 | 0.03 | 0.13 | 0.05 | 92 | 1009.1 |
| 20260509094518 | 10 | 171 | 0.0 | 0.0 | 0.03 | 0.13 | 0.05 | 92 | 1009.2 |
| 20260509094004 | 10 | 174 | 0.0 | 0.0 | 0.00 | 0.10 | 0.03 | 92 | 1009.1 |
| 20260509093504 | 10 | 174 | 0.0 | 0.0 | 0.00 | 0.10 | 0.03 | 92 | 1009.3 |
| 20260509093005 | 10 | 88 | 0.0 | 0.0 | 0.00 | 0.10 | 0.03 | 92 | 1009.4 |
| 20260509092505 | 10 | 88 | 0.0 | 0.0 | 0.00 | 0.10 | 0.03 | 91 | 1009.5 |
| 20260509092004 | 10 | 88 | 0.0 | 0.0 | 0.00 | 0.10 | 0.03 | 91 | 1009.6 |
| 20260509091507 | 10 | 76 | 0.0 | 0.0 | 0.00 | 0.10 | 0.03 | 91 | 1009.5 |
| 20260509091004 | 10 | 76 | 0.0 | 0.0 | 0.00 | 0.10 | 0.03 | 91 | 1009.5 |
| 20260509090504 | 10 | 76 | 0.0 | 0.0 | 0.00 | 0.10 | 0.03 | 91 | 1009.5 |
| 20260509090008 | 10 | 76 | 0.0 | 0.0 | 0.00 | 0.10 | 0.03 | 91 | 1009.6 |
| 20260509085504 | 10 | 76 | 0.0 | 0.0 | 0.00 | 0.10 | 0.03 | 91 | 1009.6 |
| 20260509085007 | 10 | 76 | 0.0 | 0.0 | 0.00 | 0.10 | 0.03 | 91 | 1009.6 |
| 20260509084508 | 10 | 76 | 0.0 | 0.0 | 0.00 | 0.10 | 0.03 | 91 | 1009.7 |
| 20260509084008 | 10 | 76 | 0.0 | 0.0 | 0.00 | 0.10 | 0.03 | 91 | 1009.7 |
| 20260509083505 | 10 | 76 | 0.0 | 0.0 | 0.00 | 0.10 | 0.03 | 91 | 1009.6 |
| 20260509083012 | 10 | 76 | 0.0 | 0.0 | 0.00 | 0.10 | 0.03 | 91 | 1009.5 |
| 20260509082504 | 10 | 76 | 0.0 | 0.0 | 0.00 | 0.10 | 0.03 | 91 | 1009.4 |
| 20260509082008 | 10 | 76 | 0.0 | 0.0 | 0.00 | 0.10 | 0.03 | 91 | 1009.4 |
| 20260509081518 | 10 | 76 | 0.0 | 0.0 | 0.00 | 0.10 | 0.03 | 91 | 1009.5 |
| 20260509081007 | 10 | 76 | 0.0 | 0.0 | 0.00 | 0.10 | 0.03 | 91 | 1009.5 |
| 20260509080504 | 10 | 76 | 0.0 | 0.0 | 0.00 | 0.10 | 0.03 | 91 | 1009.4 |
| 20260509080006 | 10 | 76 | 0.0 | 0.0 | 0.00 | 0.10 | 0.03 | 91 | 1009.4 |
| 20260509075504 | 10 | 76 | 0.0 | 0.0 | 0.00 | 0.10 | 0.03 | 91 | 1009.5 |
| 20260509075006 | 10 | 25 | 0.0 | 0.0 | 0.00 | 0.10 | 0.03 | 91 | 1009.6 |
| 20260509074510 | 10 | 21 | 0.0 | 0.0 | 0.00 | 0.10 | 0.03 | 91 | 1009.4 |
| 20260509074004 | 10 | 46 | 0.0 | 0.0 | 0.00 | 0.10 | 0.03 | 91 | 1009.4 |
| 20260509073504 | 10 | 46 | 0.0 | 0.0 | 0.00 | 0.10 | 0.03 | 91 | 1009.4 |
| 20260509073011 | 10 | 46 | 0.0 | 0.0 | 0.00 | 0.10 | 0.03 | 91 | 1009.4 |
| 20260509072505 | 10 | 46 | 0.0 | 0.0 | 0.00 | 0.10 | 0.03 | 91 | 1009.4 |
| 20260509072006 | 10 | 46 | 0.0 | 0.0 | 0.00 | 0.10 | 0.03 | 91 | 1009.4 |
| 20260509071511 | 10 | 46 | 0.0 | 0.0 | 0.00 | 0.10 | 0.03 | 91 | 1009.4 |
| 20260509071004 | 10 | 46 | 0.0 | 0.0 | 0.00 | 0.10 | 0.03 | 91 | 1009.4 |
| 20260509070504 | 10 | 46 | 0.0 | 0.0 | 0.00 | 0.10 | 0.03 | 90 | 1009.4 |
| 20260509070013 | 10 | 46 | 0.0 | 0.0 | 0.00 | 0.10 | 0.03 | 90 | 1009.4 |
| 20260509065503 | 10 | 46 | 0.0 | 0.0 | 0.00 | 0.10 | 0.03 | 90 | 1009.5 |
| 20260509065004 | 10 | 46 | 0.0 | 0.0 | 0.00 | 0.10 | 0.03 | 90 | 1009.6 |
| 20260509064510 | 10 | 338 | 0.0 | 0.0 | 0.00 | 0.10 | 0.03 | 91 | 1009.7 |
| 20260509064006 | 10 | 338 | 0.0 | 0.0 | 0.00 | 0.10 | 0.03 | 91 | 1009.8 |
| 20260509063503 | 10 | 338 | 0.0 | 0.0 | 0.00 | 0.10 | 0.03 | 91 | 1009.9 |
| 20260509063017 | 10 | 338 | 0.0 | 0.0 | 0.00 | 0.10 | 0.03 | 91 | 1009.9 |
| 20260509062503 | 10 | 338 | 0.0 | 0.0 | 0.00 | 0.10 | 0.03 | 91 | 1010.0 |
| 20260509062010 | 10 | 338 | 0.0 | 0.0 | 0.00 | 0.10 | 0.03 | 91 | 1010.1 |
| 20260509061512 | 10 | 338 | 0.0 | 0.0 | 0.00 | 0.10 | 0.03 | 91 | 1010.2 |
| 20260509061005 | 10 | 338 | 0.0 | 0.0 | 0.00 | 0.10 | 0.03 | 91 | 1010.2 |
| 20260509060503 | 10 | 338 | 0.0 | 0.0 | 0.00 | 0.10 | 0.03 | 90 | 1010.2 |
| 20260509060017 | 10 | 338 | 0.0 | 0.0 | 0.00 | 0.10 | 0.03 | 90 | 1010.2 |
| 20260509055503 | 10 | 338 | 0.0 | 0.0 | 0.00 | 0.10 | 0.03 | 90 | 1010.2 |
| 20260509055003 | 10 | 338 | 0.0 | 0.0 | 0.00 | 0.10 | 0.03 | 90 | 1010.3 |
| 20260509054509 | 10 | 338 | 0.0 | 0.0 | 0.00 | 0.10 | 0.03 | 90 | 1010.4 |
| 20260509054004 | 10 | 338 | 0.0 | 0.0 | 0.00 | 0.10 | 0.03 | 90 | 1010.5 |
| 20260509053504 | 10 | 338 | 0.0 | 0.0 | 0.00 | 0.10 | 0.03 | 90 | 1010.6 |
| 20260509053013 | 10 | 338 | 0.0 | 0.0 | 0.00 | 0.10 | 0.03 | 90 | 1010.7 |
| 20260509052504 | 10 | 338 | 0.0 | 0.0 | 0.00 | 0.10 | 0.03 | 90 | 1010.8 |
| 20260509052004 | 10 | 338 | 0.0 | 0.0 | 0.00 | 0.10 | 0.03 | 90 | 1010.8 |
| 20260509051511 | 10 | 338 | 0.0 | 0.0 | 0.00 | 0.10 | 0.03 | 90 | 1010.7 |
| 20260509051004 | 10 | 338 | 0.0 | 0.0 | 0.00 | 0.10 | 0.03 | 90 | 1010.7 |
| 20260509050506 | 10 | 338 | 0.0 | 0.0 | 0.00 | 0.10 | 0.03 | 90 | 1010.7 |
| 20260509050015 | 10 | 338 | 0.0 | 0.0 | 0.03 | 0.10 | 0.03 | 90 | 1010.7 |
| 20260509045505 | 10 | 338 | 0.0 | 0.0 | 0.03 | 0.10 | 0.03 | 90 | 1010.8 |
| 20260509045003 | 10 | 338 | 0.0 | 0.0 | 0.03 | 0.10 | 0.03 | 90 | 1010.7 |
| 20260509044514 | 10 | 338 | 0.0 | 0.0 | 0.03 | 0.10 | 0.03 | 90 | 1010.9 |
| 20260509044012 | 10 | 338 | 0.0 | 0.0 | 0.03 | 0.10 | 0.03 | 90 | 1010.8 |
| 20260509043506 | 10 | 338 | 0.0 | 0.0 | 0.03 | 0.10 | 0.03 | 90 | 1011.0 |
| 20260509043011 | 10 | 338 | 0.0 | 0.0 | 0.03 | 0.10 | 0.03 | 89 | 1011.1 |
| 20260509042504 | 10 | 338 | 0.0 | 0.0 | 0.03 | 0.10 | 0.03 | 89 | 1011.2 |
| 20260509042011 | 10 | 338 | 0.0 | 0.0 | 0.03 | 0.10 | 0.03 | 89 | 1011.3 |
| 20260509041514 | 10 | 338 | 0.0 | 0.0 | 0.03 | 0.10 | 0.03 | 89 | 1011.4 |
| 20260509041004 | 10 | 338 | 0.0 | 0.0 | 0.03 | 0.10 | 0.03 | 89 | 1011.5 |
| 20260509040506 | 10 | 338 | 0.0 | 0.0 | 0.03 | 0.10 | 0.03 | 89 | 1011.6 |
| 20260509040017 | 10 | 338 | 0.0 | 0.0 | 0.00 | 0.08 | 0.00 | 89 | 1011.6 |
| 20260509035506 | 10 | 338 | 0.0 | 0.0 | 0.00 | 0.08 | 0.08 | 89 | 1011.8 |
| 20260509035008 | 10 | 338 | 0.0 | 0.0 | 0.00 | 0.08 | 0.08 | 89 | 1011.8 |
| 20260509034514 | 10 | 338 | 0.0 | 0.0 | 0.03 | 0.08 | 0.08 | 88 | 1011.8 |
| 20260509034007 | 10 | 338 | 0.0 | 0.0 | 0.03 | 0.08 | 0.08 | 88 | 1011.8 |
| 20260509033506 | 10 | 338 | 0.0 | 0.0 | 0.03 | 0.08 | 0.08 | 88 | 1012.0 |
| 20260509033014 | 10 | 338 | 0.0 | 0.0 | 0.05 | 0.08 | 0.08 | 89 | 1011.9 |
| 20260509032507 | 10 | 338 | 0.0 | 0.0 | 0.05 | 0.08 | 0.08 | 88 | 1011.9 |
| 20260509032003 | 10 | 338 | 0.0 | 0.0 | 0.05 | 0.08 | 0.08 | 88 | 1011.9 |
| 20260509031516 | 11 | 338 | 0.0 | 0.0 | 0.05 | 0.08 | 0.08 | 88 | 1012.0 |
| 20260509031007 | 11 | 338 | 0.0 | 0.0 | 0.05 | 0.08 | 0.08 | 88 | 1012.2 |
| 20260509030511 | 11 | 338 | 0.0 | 0.0 | 0.05 | 0.08 | 0.08 | 88 | 1012.2 |
| 20260509030015 | 11 | 338 | 0.0 | 0.0 | 0.05 | 0.08 | 0.08 | 87 | 1012.2 |
| 20260509025506 | 11 | 338 | 0.0 | 0.0 | 0.05 | 0.08 | 0.08 | 86 | 1012.3 |
| 20260509025006 | 11 | 338 | 0.0 | 0.0 | 0.05 | 0.08 | 0.08 | 86 | 1012.3 |
| 20260509024518 | 11 | 338 | 0.0 | 0.0 | 0.03 | 0.05 | 0.05 | 86 | 1012.3 |
| 20260509024007 | 11 | 304 | 0.0 | 0.0 | 0.03 | 0.05 | 0.05 | 87 | 1012.5 |
| 20260509023508 | 11 | 74 | 0.0 | 0.0 | 0.03 | 0.05 | 0.05 | 86 | 1012.3 |
| 20260509023023 | 11 | 281 | 0.0 | 0.0 | 0.00 | 0.03 | 0.03 | 86 | 1012.6 |
| 20260509022507 | 11 | 115 | 0.0 | 0.0 | 0.00 | 0.03 | 0.03 | 86 | 1012.4 |
| 20260509022006 | 11 | 294 | 0.0 | 0.0 | 0.00 | 0.03 | 0.03 | 86 | 1012.5 |
| 20260509021518 | 11 | 23 | 0.0 | 0.0 | 0.00 | 0.03 | 0.03 | 85 | 1012.3 |
| 20260509021004 | 11 | 23 | 0.0 | 0.0 | 0.00 | 0.03 | 0.03 | 85 | 1012.2 |
| 20260509020505 | 11 | 23 | 0.0 | 0.0 | 0.00 | 0.03 | 0.03 | 84 | 1012.2 |
| 20260509020032 | 11 | 23 | 0.0 | 0.0 | 0.00 | 0.03 | 0.03 | 84 | 1012.1 |
| 20260509015507 | 11 | 23 | 0.0 | 0.0 | 0.00 | 0.03 | 0.03 | 84 | 1012.0 |
| 20260509015010 | 11 | 23 | 0.0 | 0.0 | 0.00 | 0.03 | 0.03 | 84 | 1011.7 |
| 20260509014520 | 11 | 23 | 0.0 | 0.0 | 0.00 | 0.03 | 0.03 | 84 | 1011.7 |
| 20260509014005 | 11 | 23 | 0.0 | 0.0 | 0.00 | 0.03 | 0.03 | 83 | 1011.7 |
| 20260509013506 | 11 | 23 | 0.0 | 0.0 | 0.00 | 0.03 | 0.03 | 83 | 1011.7 |
| 20260509013017 | 11 | 298 | 0.0 | 0.0 | 0.00 | 0.03 | 0.03 | 82 | 1011.8 |
| 20260509012503 | 11 | 298 | 0.0 | 0.0 | 0.00 | 0.03 | 0.03 | 82 | 1011.7 |
| 20260509012003 | 11 | 298 | 0.0 | 0.0 | 0.00 | 0.03 | 0.03 | 81 | 1011.6 |
| 20260509011512 | 11 | 298 | 0.0 | 0.0 | 0.00 | 0.03 | 0.03 | 81 | 1011.4 |
| 20260509011004 | 11 | 298 | 0.0 | 0.0 | 0.00 | 0.03 | 0.03 | 81 | 1011.4 |
| 20260509010503 | 11 | 298 | 0.0 | 0.0 | 0.00 | 0.03 | 0.03 | 81 | 1011.3 |
| 20260509010017 | 11 | 298 | 0.0 | 0.0 | 0.00 | 0.03 | 0.03 | 81 | 1011.2 |
| 20260509005507 | 11 | 298 | 0.0 | 0.0 | 0.00 | 0.03 | 0.03 | 81 | 1011.2 |
| 20260509005006 | 11 | 298 | 0.0 | 0.0 | 0.00 | 0.03 | 0.03 | 80 | 1011.2 |
| 20260509004522 | 11 | 298 | 0.0 | 0.0 | 0.00 | 0.03 | 0.03 | 81 | 1010.9 |
| 20260509004008 | 11 | 298 | 0.0 | 0.0 | 0.00 | 0.03 | 0.03 | 80 | 1011.0 |
| 20260509003509 | 11 | 298 | 0.0 | 0.0 | 0.00 | 0.03 | 0.03 | 80 | 1011.0 |
| 20260509003022 | 12 | 297 | 0.0 | 0.0 | 0.03 | 0.03 | 0.03 | 80 | 1011.0 |
| 20260509002510 | 12 | 297 | 0.0 | 0.0 | 0.03 | 0.03 | 0.03 | 79 | 1011.0 |
| 20260509002004 | 12 | 297 | 0.0 | 0.0 | 0.03 | 0.03 | 0.03 | 79 | 1011.0 |
| 20260509001510 | 12 | 297 | 0.0 | 0.0 | 0.03 | 0.03 | 0.03 | 80 | 1010.9 |
| 20260509001003 | 12 | 221 | 0.0 | 0.0 | 0.03 | 0.03 | 0.03 | 79 | 1010.6 |
| 20260509000508 | 12 | 123 | 0.0 | 0.0 | 0.03 | 0.03 | 0.03 | 78 | 1010.7 |
| 20260509000016 | 12 | 99 | 0.0 | 0.0 | 0.03 | 0.03 | 0.03 | 78 | 1011.2 |
| 20260508235506 | 12 | 99 | 0.0 | 0.0 | 0.03 | 0.03 | 0.03 | 78 | 1011.0 |
| 20260508235005 | 12 | 99 | 0.0 | 0.0 | 0.03 | 0.03 | 0.03 | 77 | 1010.9 |
| 20260508234524 | 12 | 123 | 0.0 | 0.0 | 0.03 | 0.03 | 0.03 | 77 | 1010.8 |
| 20260508234006 | 12 | 123 | 0.0 | 0.0 | 0.03 | 0.03 | 0.03 | 77 | 1010.7 |
| 20260508233507 | 12 | 338 | 0.0 | 0.0 | 0.03 | 0.03 | 0.03 | 78 | 1011.0 |
| 20260508233022 | 12 | 337 | 0.0 | 0.0 | 0.00 | 0.00 | 0.00 | 77 | 1011.1 |
| 20260508232508 | 12 | 330 | 0.0 | 0.0 | 0.00 | 0.00 | 0.00 | 76 | 1011.1 |
| 20260508232009 | 12 | 330 | 0.0 | 0.0 | 0.00 | 0.00 | 0.00 | 76 | 1011.3 |
| 20260508231521 | 12 | 330 | 0.0 | 0.0 | 0.00 | 0.00 | 0.00 | 76 | 1011.1 |
| 20260508231004 | 13 | 330 | 0.0 | 0.0 | 0.00 | 0.00 | 0.00 | 75 | 1011.1 |
| 20260508230504 | 13 | 328 | 0.0 | 0.0 | 0.00 | 0.00 | 0.00 | 76 | 1011.2 |
| 20260508230014 | 13 | 328 | 0.0 | 0.0 | 0.00 | 0.00 | 0.00 | 75 | 1011.1 |
| 20260508225506 | 13 | 340 | 0.0 | 0.0 | 0.00 | 0.00 | 0.00 | 74 | 1011.0 |
| 20260508225009 | 13 | 325 | 0.0 | 0.0 | 0.00 | 0.00 | 0.00 | 75 | 1011.0 |
| 20260508224525 | 13 | 325 | 0.0 | 0.0 | 0.00 | 0.00 | 0.00 | 76 | 1011.0 |
| 20260508224005 | 13 | 325 | 0.0 | 0.0 | 0.00 | 0.00 | 0.00 | 76 | 1011.2 |
| 20260508223506 | 13 | 309 | 0.0 | 0.0 | 0.00 | 0.00 | 0.00 | 76 | 1011.2 |
| 20260508223029 | 13 | 308 | 0.0 | 0.0 | 0.00 | 0.00 | 0.00 | 75 | 1011.3 |